{"data":{"norad_id":28220,"intl_designator":"2004-012A","name":"SHIYAN-1 (SY-1)","alt_names":[],"object_type":"PAYLOAD","status":"ACTIVE","operator":null,"country":"PRC","launch_date":"2004-04-18","launch_site_code":"XICLF","launch_vehicle":null,"mission":null,"orbit_class":"UNKNOWN","rcs_meters":1.5466,"size_class":null,"mass_kg":null,"dimensions":null,"purposes":["earth_obs"],"wikipedia_slug":null,"has_3d_model":false,"image_url":null,"decayed_at":null,"tle_current":{"epoch":"2026-09-19T04:36:54.758880Z","epoch_age_seconds":124260,"freshness":"FRESH","line1":"1 28220U 04012A   26262.19230045  .00010122  00000+0  29139-3 0  9995","line2":"2 28220  97.8628 346.4971 0006029  55.8759 304.3054 15.35968729225515","mean_motion":15.35968729,"eccentricity":0.0006029,"inclination_deg":97.8628,"raan_deg":346.4971,"arg_perigee_deg":55.8759,"mean_anomaly_deg":304.3054,"bstar":0.00029139,"rev_number":22551,"period_min":93.751908669229,"perigee_km":453.92308194575,"apogee_km":462.16614973814,"semimajor_km":6836.1816158419,"source":"CELESTRAK","updated_at":"2026-09-20T09:00:33.884721Z"}}}